AO-07 1 07530U 74089B 17146.54146970 -.00000051 00000-0 -44678-4 0 9999 2 07530 101.6286 115.6539 0012204 006.5207 103.4229 12.53627076946144 UO-11 1 14781U 84021B 17146.57501605 .00000128 00000-0 22022-4 0 9997 2 14781 097.6992 193.0841 0006990 270.5828 089.4585 14.82894705766148 LO-19 1 20442U 90005G 17146.42682074 .00000002 00000-0 16845-4 0 9998 2 20442 098.5748 083.1632 0011118 207.2361 152.8241 14.32859997428500 HUBBLE 1 20580U 90037B 17146.46184240 .00000491 00000-0 19271-4 0 9990 2 20580 028.4687 151.0756 0002501 302.4697 192.1583 15.08768385286912 MET-2/21 1 22782U 93055A 17146.19563434 .00000012 00000-0 -31007-5 0 9997 2 22782 082.5507 041.0406 0023310 130.4233 342.9985 13.83801925198389 AO-27 1 22825U 93061C 17146.50201609 -.00000005 00000-0 15696-4 0 9997 2 22825 098.8105 111.8189 0009161 040.6836 319.5028 14.29996491234039 IO-26 1 22826U 93061D 17146.46809348 -.00000008 00000-0 14439-4 0 9994 2 22826 098.8046 111.8692 0009540 031.6046 328.5707 14.30325106234223 FO-29 1 24278U 96046B 17146.57262042 -.00000033 00000-0 11672-5 0 9994 2 24278 098.5671 032.7032 0351048 033.5577 328.7274 13.53076341025709 NOAA-15 1 25338U 98030A 17146.60080438 .00000070 00000-0 48317-4 0 9993 2 25338 098.7823 157.4682 0009371 269.2733 090.7372 14.25794233989661 GO-32 1 25397U 98043D 17146.40710353 -.00000011 00000-0 13953-4 0 9990 2 25397 098.6087 089.2046 0002398 074.9924 285.1520 14.23622217980473 ISS 1 25544U 98067A 17146.57350904 .00001688 00000-0 32974-4 0 9994 2 25544 051.6413 146.0488 0005140 194.6814 258.0121 15.53931367058393 NO-44 1 26931U 01043C 17146.43302121 -.00000015 00000-0 26019-4 0 9993 2 26931 067.0495 147.3251 0008049 268.7238 091.2941 14.30460968817164 SO-50 1 27607U 02058C 17146.58303822 .00000016 00000-0 22765-4 0 9990 2 27607 064.5547 191.5803 0030234 107.8315 252.6089 14.75324698775795 CO-55 1 27844U 03031E 17146.54468070 .00000056 00000-0 45055-4 0 9999 2 27844 098.6897 155.8662 0010766 054.6712 305.5470 14.22037627721202 CO-57 1 27848U 03031J 17146.53858838 .00000047 00000-0 41307-4 0 9993 2 27848 098.6990 156.1099 0010770 063.1664 297.0614 14.21652217721093 RS-22 1 27939U 03042A 17146.61583512 .00000135 00000-0 32712-4 0 9997 2 27939 097.9361 292.0557 0011673 297.5351 122.7107 14.66563508730012 NOAA-18 1 28654U 05018A 17146.58890302 -.00000008 00000-0 21182-4 0 9990 2 28654 099.1836 168.2743 0015239 129.8809 230.3704 14.12337867619110 CO-58 1 28895U 05043F 17146.43013374 .00000173 00000-0 42187-4 0 9995 2 28895 097.8625 309.7283 0016189 208.0914 151.9417 14.63391933617309 Falconsat-3 1 30776U 07006E 17146.53115618 .00002329 00000-0 74893-4 0 9996 2 30776 035.4354 203.9943 0002371 144.1146 215.9739 15.32146232564935 CO-65 1 32785U 08021C 17146.45332522 .00000294 00000-0 37741-4 0 9992 2 32785 097.5680 171.7173 0011772 236.5960 123.4132 14.87875869491595 AAUSAT2 1 32788U 08021F 17146.59847981 .00000599 00000-0 61484-4 0 9999 2 32788 097.5606 183.3957 0011500 195.1069 164.9810 14.93844842492356 DO-64 1 32789U 08021G 17146.61378138 .00001344 00000-0 99386-4 0 9997 2 32789 097.5612 205.2993 0013362 166.7788 193.3791 15.04802243493524 CO-66 1 32791U 08021J 17146.35432359 .00000508 00000-0 57855-4 0 9993 2 32791 097.5650 175.9197 0012390 220.5474 139.4823 14.90203152491814 RS-30 1 32953U 08025A 17146.47192302 .00000027 00000-0 12558-3 0 9997 2 32953 082.5041 253.1520 0018008 335.4350 024.5870 12.43076689408725 PRISM 1 33493U 09002B 17146.55451840 .00001069 00000-0 10174-3 0 9996 2 33493 098.1721 028.0748 0015993 149.4574 210.7591 14.95639659452544 NOAA-19 1 33591U 09005A 17146.58840878 .00000055 00000-0 54721-4 0 9995 2 33591 099.0908 113.1087 0013605 337.3693 022.6877 14.12182178427345 TISAT-1 1 36799U 10035E 17146.39132633 .00000418 00000-0 49004-4 0 9996 2 36799 098.0588 268.6806 0013322 044.2199 316.0081 14.90370956372331 JUGNU 1 37839U 11058B 17146.54466934 .00000322 00000-0 29686-4 0 9997 2 37839 019.9605 221.7098 0018875 305.3881 200.3606 14.12583561290631 SRMSAT 1 37841U 11058D 17146.49189788 .00000322 00000-0 32019-4 0 9997 2 37841 019.9719 263.2666 0011721 202.7848 231.8851 14.10574950290213 AO-71 1 37854U 11061E 17146.56520792 .00002202 00000-0 12498-3 0 9994 2 37854 101.7055 009.1962 0167743 138.9713 222.4257 15.03998566303232 HRBE 1 37855U 11061F 17146.56019591 .00002348 00000-0 13025-3 0 9993 2 37855 101.7186 007.0064 0180886 145.3986 215.9153 15.02956208303075 ALMASAT-1 1 38078U 12006B 17146.59079580 .00018268 37378-5 20839-3 0 9990 2 38078 069.4400 190.4163 0314353 322.3388 035.6129 15.21266004281502 HORYU-2 1 38340U 12025D 17146.58777058 .00000245 00000-0 44310-4 0 9991 2 38340 098.3763 149.7487 0011788 007.8159 352.3231 14.75326599259692 RS-40 1 38735U 12041C 17146.55098678 .00000008 00000-0 -11141-4 0 9992 2 38735 082.4742 337.6800 0017623 076.3311 283.9730 12.42574369218985 BEESAT-3 1 39134U 13015E 17146.60487597 .00001518 00000-0 83735-4 0 9990 2 39134 064.8665 296.1201 0034706 273.8801 085.8357 15.17729231225820 BEESAT-2 1 39136U 13015G 17146.59126179 .00001105 00000-0 68634-4 0 9999 2 39136 064.8700 306.5532 0031852 285.5737 074.1872 15.15029486225615 ZACUBE-1 1 39417U 13066B 17146.60315942 .00000245 00000-0 37636-4 0 9999 2 39417 097.6314 189.8899 0058769 342.0742 017.8397 14.80695577189583 TRITON-1 1 39427U 13066M 17146.57530196 .00000252 00000-0 48061-4 0 9998 2 39427 097.6384 163.3795 0115758 058.4679 302.7772 14.67445404187681 GOMX-1 1 39430U 13066Q 17146.56716761 .00000256 00000-0 55031-4 0 9994 2 39430 097.6646 147.2530 0153430 111.1067 250.6613 14.58855232186599 LO-74 1 39440U 13066AA 17146.61107914 .00000266 00000-0 44393-4 0 9995 2 39440 097.6304 179.2443 0081041 011.5624 348.7423 14.75437494187717 AO-73 1 39444U 13066AE 17146.59346834 .00000323 00000-0 46720-4 0 9992 2 39444 097.6329 190.9066 0057838 338.9343 020.9488 14.81425226187829 SPROUT 1 39770U 14029E 17146.55203009 .00000927 00000-0 11176-3 0 9992 2 39770 097.8710 246.1357 0010279 046.2211 313.9843 14.86195968162921 DUCHIFAT-1 1 40021U 14033M 17146.47125794 .00000467 00000-0 54501-4 0 9992 2 40021 097.9200 059.6039 0013739 019.2687 340.9047 14.89863097159360 NANOSATCBR1 1 40024U 14033Q 17146.53071912 .00000404 00000-0 48683-4 0 9999 2 40024 097.9159 058.5851 0012994 020.3564 339.8168 14.89192146159322 EO-79 1 40025U 14033R 17146.36423083 .00000385 00000-0 47543-4 0 9993 2 40025 097.9142 057.4926 0013241 023.2741 336.9072 14.88400354158739 DTUSAT-2 1 40030U 14033W 17146.22944300 .00000365 00000-0 45777-4 0 9999 2 40030 097.9109 056.4939 0012575 018.7106 341.4570 14.88024246158673 EO-80 1 40032U 14033Y 17146.47244131 .00000354 00000-0 44644-4 0 9993 2 40032 097.9116 056.7429 0012510 018.4704 341.6963 14.87959164158695 ANTELSAT 1 40034U 14033AA 17146.62432042 .00000283 00000-0 49966-4 0 9995 2 40034 097.8622 031.2211 0059336 003.7566 356.4076 14.73683155157210 VELOX-1 1 40057U 14034E 17146.55334984 .00000476 00000-0 74991-4 0 9999 2 40057 098.1872 246.4454 0012278 123.7336 236.5039 14.77103955156560 DAURIA DX 1 1 40071U 14037C 17146.51153593 .00000162 00000-0 28364-4 0 9994 2 40071 098.3347 256.7198 0009447 118.0301 242.1864 14.81008494155764 UKUBE-1 1 40074U 14037F 17146.57423826 .00000450 00000-0 61897-4 0 9990 2 40074 098.3436 260.5236 0005740 115.1045 245.0764 14.83481575155978 HODOYOSHI-1 1 40299U 14070B 17146.49218928 .00000984 00000-0 45779-4 0 9995 2 40299 097.4033 229.5608 0013619 161.9204 255.0572 15.22214481141649 CHUBUSAT-1 1 40300U 14070C 17146.51533101 .00001072 00000-0 51499-4 0 9999 2 40300 097.3961 226.8056 0020551 173.3231 311.9362 15.20809398141495 QSAT-EOS 1 40301U 14070D 17146.47247685 .00002599 00000-0 11215-3 0 9990 2 40301 097.3898 226.7591 0027744 170.4948 028.4930 15.23089480141522 FIREBIRD FU3 1 40377U 15003B 17146.54963492 .00002255 00000-0 99016-4 0 9994 2 40377 099.1217 326.1953 0137570 074.2404 287.3946 15.15262326127726 FIREBIRD FU4 1 40378U 15003C 17146.54217533 .00002241 00000-0 98317-4 0 9991 2 40378 099.1220 326.2221 0137759 074.1760 287.4606 15.15284467127727 GRIFEX 1 40379U 15003D 17146.62435878 .00001992 00000-0 92773-4 0 9997 2 40379 099.1236 324.1916 0143549 081.1422 280.6026 15.12865737127611 NO-84 1 40654U 15025D 17146.53554344 .00007591 00000-0 14708-3 0 04567 2 40654 054.9974 333.3593 0180880 210.2692 148.7789 15.33087210076574 NO-83 1 40655U 15025E 17146.11217635 .00015890 00000-0 24690-3 0 05081 2 40655 054.9831 312.2879 0149305 222.1925 136.7538 15.42444924076813 DEORBITSAIL 1 40719U 15032E 17146.56454132 .00000485 00000-0 77800-4 0 9994 2 40719 097.9829 040.5904 0015520 209.0121 151.0228 14.76033250101133 NUDT-PHONESAT 1 40900U 15049B 17146.56976635 .00002485 00000-0 12089-3 0 9990 2 40900 097.4426 154.8011 0012489 305.9288 054.0787 15.19278444093172 XW-2A 1 40903U 15049E 17146.59544109 .00002256 00000-0 61180-4 0 9996 2 40903 097.4222 172.0329 0014480 350.5902 009.5069 15.38630897094326 XW-2C 1 40906U 15049H 17146.56991965 .00000834 00000-0 48811-4 0 9998 2 40906 097.4549 152.4932 0013665 292.3281 067.6502 15.14492665092968 XW-2D 1 40907U 15049J 17146.55477438 .00000905 00000-0 52526-4 0 9999 2 40907 097.4517 152.2462 0013002 290.4880 069.4956 15.14592884092966 LILACSAT-2 1 40908U 15049K 17146.59634565 .00000442 00000-0 28579-4 0 9997 2 40908 097.4620 152.0836 0014596 287.6342 072.3295 15.13092020092904 XW-2F 1 40910U 15049M 17146.56943339 .00001325 00000-0 73442-4 0 9999 2 40910 097.4539 152.9098 0013782 287.8253 072.1475 15.15452630093003 XW-2B 1 40911U 15049N 17146.56033580 .00000887 00000-0 51568-4 0 9995 2 40911 097.4561 152.6168 0012908 290.8458 069.1392 15.14556046092866 DCBB 1 40912U 15049P 17146.59701219 .00001806 00000-0 93156-4 0 9991 2 40912 097.4506 154.7137 0014053 279.8729 198.7857 15.17545932093014 TW-1C 1 40926U 15051B 17146.54014837 .00007876 00000-0 18411-3 0 9990 2 40926 097.2311 186.2698 0010096 245.9515 254.0734 15.42381734093581 TW-1A 1 40928U 15051D 17146.39886681 .00004053 00000-0 11789-3 0 9994 2 40928 097.2285 182.6051 0011039 278.8644 196.1589 15.35949586093358 IO-86 1 40931U 15052B 17146.35933591 .00000649 00000-0 13836-5 0 9992 2 40931 005.9994 028.3630 0013568 297.1544 062.7148 14.76527726089734 GomX-3 1 40949U 98067HA 16292.18357804 .08527750 12374-4 77882-3 0 9992 2 40949 51.6055 106.7696 0006699 286.1344 73.8944 16.38002265 59645 LQSat 1 40958U 15057A 17146.51004396 .00000056 00000-0 16475-4 0 9999 2 40958 097.9778 222.2065 0019056 132.4760 227.8067 14.72964428087923 AO-85 1 40967U 15058D 17146.34372936 .00000370 00000-0 62044-4 0 04963 2 40967 064.7776 285.1351 0172047 086.0909 275.9845 14.75415621073896 ATHENOXAT-1 1 41168U 15077C 17145.25028286 .00002717 00000-0 11695-3 0 9993 2 41168 014.9878 336.9996 0011831 057.0438 094.3461 15.11509047079562 ChubuSat-2 1 41338U 16012B 17146.52178481 .00000429 00000-0 26982-4 0 9990 2 41338 031.0031 249.8581 0013931 205.6069 154.3877 14.99729803069733 ChubuSat-3 1 41339U 16012C 17146.45296568 .00000462 00000-0 29450-4 0 9990 2 41339 031.0114 249.4792 0014009 212.8501 147.1258 14.99936468069701 Horyu-4 1 41340U 16012D 17146.56903235 .00000634 00000-0 42220-4 0 9991 2 41340 031.0049 246.3731 0014245 220.6476 139.3097 15.00575902069764 OUFTI-1 1 41458U 16025C 17146.60996529 .00002784 00000-0 15216-3 0 9990 2 41458 098.1884 182.9507 0174903 002.4324 357.7709 15.03104227059347 e-st@r-II 1 41459U 16025D 17146.62872410 .00002840 00000-0 15564-3 0 9994 2 41459 098.1878 182.9246 0175179 002.5659 357.6421 15.02948751059335 AAUSAT4 1 41460U 16025E 17146.50558085 .00003950 00000-0 21475-3 0 9993 2 41460 098.1811 182.8842 0168092 001.2201 358.9372 15.03804864059336 MinXSS 1 41474U 98067HU 17125.52237589 .05724416 12300-4 86147-3 0 9995 2 41474 051.6449 208.6967 0008167 329.0747 030.9230 16.33400422055623 CADRE 1 41475U 98067HV 17003.74787607 .12518598 12537-4 55989-3 0 9998 2 41475 51.6110 110.0165 0004040 312.3134 47.7551 16.43344525 36494 NODES 1 1 41477U 98067HX 17146.52277892 .00046396 00000-0 24975-3 0 9992 2 41477 051.6284 115.6782 0004713 044.6723 315.4658 15.79704811058640 NODES 2 1 41478U 98067HY 17146.36789435 .00043750 00000-0 24082-3 0 9996 2 41478 051.6314 116.9107 0004422 044.4185 315.7171 15.79240193058615 LO-87 1 41557U 16033B 17146.58566982 .00001811 00000-0 71033-4 0 9992 2 41557 097.4637 226.1028 0016056 085.0379 275.2693 15.26968032055131 NuSat2 1 41558U 16033C 17146.42023957 .00001736 00000-0 68462-4 0 9994 2 41558 097.4664 225.9873 0015536 084.4642 275.8368 15.26841666055100 Lapan A3 1 41603U 16040E 17146.58057039 .00000324 00000-0 18572-4 0 9997 2 41603 097.4628 208.8195 0014305 143.8743 344.8127 15.19337177051377 Swayam 1 41607U 16040J 17146.41621159 .00001942 00000-0 91312-4 0 9993 2 41607 097.4619 208.9084 0015466 147.3150 212.9046 15.20688174051293 Pratham 1 41783U 16059A 17146.47769762 .00000072 00000-0 23471-4 0 9991 2 41783 098.1686 208.0740 0032675 227.2849 132.5601 14.62833622035420 AlSat 1N 1 41789U 16059G 17146.55253511 .00000124 00000-0 32784-4 0 9991 2 41789 098.1678 208.6049 0027376 221.1129 138.8016 14.64042993035447 ScatSat 1 41790U 16059H 17146.59714858 .00000038 00000-0 20483-4 0 9990 2 41790 098.0668 197.5571 0010700 207.0967 152.9671 14.50107420035131 TY-1 1 41844U 16066D 17146.52954834 .00001464 00000-0 67076-4 0 9994 2 41844 097.4044 154.0115 0015157 320.1082 197.2225 15.21988846030040 CAS-2T 1 41845U 16066E 17146.47361370 .00000174 00000-0 37959-4 0 9990 2 41845 098.7767 161.5830 0365858 312.8377 044.2601 14.37749931028373 Pegasus-1 1 41846U 16066F 17146.58609656 .00000538 00000-0 93569-4 0 9998 2 41846 098.7814 161.5036 0368892 313.7359 043.3819 14.37001885028376 STARS-C 1 41895U 98067KR 17146.57482034 .00017731 00000-0 21649-3 0 9993 2 41895 051.6372 142.5119 0002787 244.1091 115.9615 15.60529068024614 Tancredo 1 1 41931U 98067KT 17146.41106408 .00037878 00000-0 37450-3 0 9996 2 41931 051.6356 141.4032 0003420 169.2304 190.8765 15.65482258020188 ITF-2 1 41932U 98067KU 17146.34839815 .00010693 00000-0 14282-3 0 9998 2 41932 051.6393 144.7581 0004735 178.0830 182.0181 15.58650524020132 AOBA-V3LOX3 1 41935U 98067KX 17146.59910344 .00010677 00000-0 14129-3 0 9997 2 41935 051.6389 143.4302 0004028 182.1401 177.9575 15.58904389020278 OSNSAT 1 41939U 98067KZ 17146.39388079 .00024488 00000-0 27671-3 0 9994 2 41939 051.6371 142.7983 0004674 179.2030 180.8972 15.62312238019523 EO-88 1 42017U 17008BX 17146.55478756 .00001912 00000-0 84640-4 0 9995 2 42017 097.4969 208.0519 0005102 305.4391 054.6368 15.22884663015191 SOMP2 1 42700U 98067LH 17146.24099712 .00009256 00000-0 14175-3 0 9999 2 42700 051.6394 147.6262 0005235 254.8246 174.5572 15.55111160001533 HAVELSAT 1 42701U 98067LJ 17146.31642381 .00009020 00000-0 13835-3 0 9995 2 42701 051.6401 147.2493 0005571 239.9072 251.8913 15.55105705001524 Columbia 1 42702U 98067LK 17146.31563003 .00016324 00000-0 24342-3 0 9999 2 42702 051.6411 147.2500 0005131 240.7681 247.5549 15.55218209001456 PHOENIX 1 42706U 98067LP 17146.30862670 .00009420 00000-0 14424-3 0 9993 2 42706 051.6413 147.2969 0001591 208.7387 236.7375 15.55095288001440 X-CubeSat 1 42707U 98067LQ 17146.31691506 .00009066 00000-0 13920-3 0 9999 2 42707 051.6390 147.2573 0001089 164.9070 326.2930 15.55073688001431 qbee 1 42708U 98067LR 17146.30898514 .00009426 00000-0 14453-3 0 9999 2 42708 051.6402 147.2976 0000831 204.2355 241.8411 15.55055890001397 ZA-AeroSat 1 42713U 98067LU 17146.31006494 .00008579 00000-0 13260-3 0 9997 2 42713 051.6397 147.3145 0004307 234.4992 210.7788 15.54970279001106 LINK 1 42714U 98067LV 17146.31040925 .00009925 00000-0 15285-3 0 9990 2 42714 051.6383 147.3129 0002259 162.7260 282.6338 15.54867338001211 UPSat 1 42716U 98067LX 17146.31796131 .00010815 00000-0 16507-3 0 9997 2 42716 051.6405 147.2701 0003436 245.0525 245.4715 15.55003598001239 SpaceCube 1 42717U 98067LY 17146.31848382 .00008939 00000-0 13805-3 0 9996 2 42717 051.6359 147.2556 0000740 028.2884 103.8507 15.54930526000470 Hoopoe 1 42718U 98067LZ 17146.30953725 .00010024 00000-0 15368-3 0 9998 2 42718 051.6386 147.3131 0003987 247.9870 194.4663 15.54975590000471 UNSW-EC0 1 42721U 98067MA 17145.48097229 -.00036282 00000-0 -53230-3 0 9994 2 42721 051.6379 151.4984 0007691 206.9345 250.6078 15.54646874000045 NJUST-1 1 42722U 98067MB 17145.60917919 -.00052252 00000-0 -77228-3 0 9994 2 42722 051.6516 150.8315 0007059 213.3724 242.1736 15.54620085000066 Challenger 1 42723U 98067MC 17146.18459052 .00005483 00000-0 88247-4 0 9994 2 42723 051.6351 147.9707 0007494 221.2958 216.8812 15.54676027000134 DUTHsat 1 42724U 98067MD 17146.51785720 -.00104458 00000-0 -15699-2 0 9999 2 42724 051.6401 146.3227 0006014 226.3323 277.4960 15.54478796000118 LilacSat-1 1 42725U 98067ME 17146.45007944 .00009561 00000-0 14864-3 0 9999 2 42725 051.6378 146.6650 0001131 262.8784 221.3485 15.54656197000108 nSIGHT1 1 42726U 98067MF 17146.44397074 -.00070558 00000-0 -10488-2 0 9998 2 42726 051.6365 146.7018 0004925 272.9823 176.9782 15.54609789000104 /EX
